TimeMDT,TemperatureF,Dew PointF,Humidity,Sea Level PressureIn,VisibilityMPH,Wind Direction,Wind SpeedMPH,Gust SpeedMPH,PrecipitationIn,Events,Conditions,WindDirDegrees,DateUTC
12:53 AM,57.9,55.9,93,29.94,10.0,North,9.2,-,0.01,Rain,Light Rain,10,2013-07-15 06:53:00
1:53 AM,57.9,55.0,90,29.96,10.0,NNW,9.2,-,0.05,Rain,Light Rain,330,2013-07-15 07:53:00
2:46 AM,57.2,55.4,94,30.26,8.0,NNW,6.9,-,0.03,Rain,Light Rain,330,2013-07-15 08:46:00
2:53 AM,57.9,55.9,93,29.96,10.0,NNW,6.9,-,0.03,,Overcast,340,2013-07-15 08:53:00
3:53 AM,57.9,55.0,90,29.99,10.0,North,13.8,-,0.00,Rain,Light Rain,350,2013-07-15 09:53:00
4:48 AM,57.2,57.2,100,30.25,6.0,NNE,20.7,25.3,0.01,Rain,Light Rain,30,2013-07-15 10:48:00
4:51 AM,57.2,57.2,100,30.25,1.8,NE,21.9,25.3,0.01,Rain,Rain,50,2013-07-15 10:51:00
4:53 AM,57.9,57.0,97,29.99,0.8,NE,19.6,25.3,0.02,Rain,Rain,50,2013-07-15 10:53:00
4:57 AM,57.2,57.2,100,30.25,0.2,NE,20.7,-,0.00,Fog-Rain,Light Rain,50,2013-07-15 10:57:00
5:24 AM,55.4,55.4,100,30.27,0.8,East,18.4,-,0.00,Rain,Light Rain,90,2013-07-15 11:24:00
5:34 AM,55.4,53.6,94,30.27,1.2,East,18.4,-,0.00,,Overcast,90,2013-07-15 11:34:00
5:53 AM,54.0,54.0,100,30.03,3.0,East,17.3,-,0.00,,Overcast,90,2013-07-15 11:53:00
6:05 AM,53.6,53.6,100,30.29,1.8,East,16.1,-,N/A,,Overcast,90,2013-07-15 12:05:00
6:14 AM,53.6,53.6,100,30.29,3.0,East,18.4,-,N/A,,Overcast,80,2013-07-15 12:14:00
6:20 AM,53.6,53.6,100,30.29,1.8,East,15.0,-,N/A,,Overcast,80,2013-07-15 12:20:00
6:30 AM,53.6,53.6,100,30.29,0.5,East,15.0,-,N/A,Fog,Fog,80,2013-07-15 12:30:00
6:53 AM,53.1,53.1,100,30.06,0.8,East,11.5,-,N/A,,Mist,80,2013-07-15 12:53:00
7:05 AM,53.6,53.6,100,30.30,0.2,East,11.5,-,N/A,Fog,Fog,80,2013-07-15 13:05:00
7:15 AM,53.6,53.6,100,30.31,1.2,ENE,13.8,-,N/A,,Overcast,70,2013-07-15 13:15:00
7:24 AM,53.6,53.6,100,30.32,0.2,East,13.8,-,N/A,Fog,Fog,80,2013-07-15 13:24:00
7:35 AM,53.6,53.6,100,30.32,1.0,East,12.7,-,N/A,,Overcast,100,2013-07-15 13:35:00
7:51 AM,53.6,53.6,100,30.32,5.0,East,11.5,-,N/A,,Overcast,80,2013-07-15 13:51:00
7:53 AM,53.1,53.1,100,30.09,9.0,East,10.4,-,N/A,,Overcast,80,2013-07-15 13:53:00
8:17 AM,53.6,53.6,100,30.33,3.0,East,11.5,-,N/A,,Overcast,80,2013-07-15 14:17:00
8:53 AM,54.0,53.1,97,30.09,1.8,East,10.4,-,0.00,,Overcast,80,2013-07-15 14:53:00
9:02 AM,53.6,53.6,100,30.34,3.0,East,11.5,-,N/A,,Overcast,90,2013-07-15 15:02:00
9:19 AM,55.4,53.6,94,30.34,10.0,East,10.4,-,N/A,,Overcast,90,2013-07-15 15:19:00
9:53 AM,55.0,54.0,96,30.10,3.0,East,11.5,-,0.00,Rain,Light Rain,100,2013-07-15 15:53:00
10:00 AM,55.4,53.6,94,30.34,2.5,East,12.7,-,0.00,Rain,Light Rain,100,2013-07-15 16:00:00
10:07 AM,55.4,53.6,94,30.34,6.0,ESE,13.8,-,0.00,Rain,Light Rain,110,2013-07-15 16:07:00
10:48 AM,55.4,53.6,94,30.35,10.0,ESE,15.0,-,0.00,,Overcast,120,2013-07-15 16:48:00
10:53 AM,55.9,53.1,90,30.10,9.0,ESE,13.8,-,0.00,Rain,Light Rain,110,2013-07-15 16:53:00
11:50 AM,57.2,53.6,88,30.35,10.0,East,12.7,-,0.00,,Overcast,100,2013-07-15 17:50:00
11:53 AM,57.0,54.0,89,30.10,10.0,East,11.5,-,0.00,,Overcast,100,2013-07-15 17:53:00
12:30 PM,59.0,53.6,82,30.34,10.0,ENE,12.7,18.4,N/A,,Overcast,70,2013-07-15 18:30:00
12:37 PM,60.8,53.6,77,30.34,10.0,ENE,11.5,-,N/A,,Overcast,60,2013-07-15 18:37:00
12:53 PM,60.1,53.1,78,30.09,10.0,East,11.5,19.6,N/A,,Overcast,80,2013-07-15 18:53:00
1:53 PM,63.0,52.0,67,30.05,10.0,East,10.4,-,N/A,,Overcast,80,2013-07-15 19:53:00
2:02 PM,62.6,51.8,68,30.31,10.0,NNE,11.5,17.3,N/A,,Mostly Cloudy,30,2013-07-15 20:02:00
2:20 PM,62.6,51.8,68,30.31,10.0,East,12.7,-,N/A,,Mostly Cloudy,80,2013-07-15 20:20:00
2:30 PM,64.4,51.8,64,30.30,10.0,ENE,12.7,-,N/A,,Mostly Cloudy,60,2013-07-15 20:30:00
2:53 PM,63.0,53.1,70,30.02,10.0,ESE,16.1,-,N/A,,Mostly Cloudy,120,2013-07-15 20:53:00
3:04 PM,62.6,51.8,68,30.30,10.0,ESE,16.1,-,N/A,,Overcast,110,2013-07-15 21:04:00
3:53 PM,64.0,50.0,60,30.02,10.0,East,13.8,20.7,N/A,,Mostly Cloudy,100,2013-07-15 21:53:00
4:53 PM,64.0,50.0,60,30.00,10.0,East,11.5,-,N/A,,Mostly Cloudy,100,2013-07-15 22:53:00
5:53 PM,63.0,48.0,58,30.01,10.0,ESE,12.7,-,N/A,,Mostly Cloudy,110,2013-07-15 23:53:00
6:53 PM,61.0,48.0,62,30.04,10.0,East,12.7,-,N/A,,Mostly Cloudy,100,2013-07-16 00:53:00
7:53 PM,60.1,48.9,67,30.06,10.0,East,9.2,-,N/A,,Mostly Cloudy,100,2013-07-16 01:53:00
8:53 PM,57.9,50.0,75,30.07,10.0,East,5.8,-,N/A,,Mostly Cloudy,100,2013-07-16 02:53:00
9:53 PM,57.9,51.1,78,30.08,10.0,ESE,4.6,-,N/A,,Overcast,120,2013-07-16 03:53:00
10:53 PM,57.0,52.0,83,30.09,10.0,SE,3.5,-,N/A,,Overcast,140,2013-07-16 04:53:00
11:53 PM,55.0,48.9,80,30.10,10.0,ESE,13.8,-,N/A,,Mostly Cloudy,120,2013-07-16 05:53:00